Flag for Canada Weather past 2 weeks in Québec, Quebec, Canada

Now
43 °F

Broken clouds.


Feels Like: 39 °F
Forecast: N/A
Wind: 6 mph from East

Location: Quebec Weather Station


UV Index: N/A

Visibility: 15 mi


Pressure: 29.57 "Hg

Humidity: 87%

Dew point: 39 °F

Location of QuébecLocation

Historic Weather in Québec

°F

Québec temperature yesterday

Maximum temperature yesterday: 45 °F (at 1:00 AM)
Minimum temperature yesterday: 37 °F (at 11:00 PM)
Average temperature yesterday: 40 °F

Past Weeks' High & Low Weather Summary

 TemperatureHumidityPressure
High59 °F (Apr 21, 5:00 PM)100% (Apr 8, 4:00 PM)30.84 "Hg (Apr 8, 4:00 PM)
Low16 °F (Apr 16, 7:00 AM)27% (Apr 19, 6:00 PM)29.21 "Hg (Apr 8, 5:00 PM)
Average37 °F68%29.98 "Hg
* Reported Apr 8 2:00 PM — Apr 23 2:00 PM, Québec, Weather by CustomWeather, © 2014

Note: Actual official high and low records may vary slightly from our data, if they occured in-between our weather recording intervals... More about our weather records

Advertising

Historic Weather Conditions — Data for Previous 24 hours

 ConditionsComfort  
Time TempWeatherWind HumidityBarometerVisibility
2:00 PM
Apr 23
41 °FBroken clouds.2 mph93%29.56 "Hg15 mi
1:00 PM39 °FMostly cloudy.No wind93%29.55 "Hg10 mi
12:00 PM39 °FLow clouds.3 mph93%29.55 "Hg10 mi
11:00 AM37 °FLow clouds.3 mph93%29.55 "Hg10 mi
10:00 AM37 °FDrizzle. Mostly cloudy.3 mph93%29.54 "Hg10 mi
9:00 AM37 °FLight rain. Fog.6 mph93%29.52 "Hg3 mi
8:00 AM37 °FLight rain. Fog.5 mph93%29.52 "Hg4 mi
7:00 AM37 °FLight rain. Fog.3 mph100%29.50 "Hg1 mi
6:00 AM37 °FLight rain. Fog.5 mph93%29.47 "Hg1 mi
5:00 AM37 °FLight rain. Fog.6 mph93%29.46 "Hg1 mi
4:00 AM37 °FLight rain. Fog.2 mph100%29.45 "Hg1 mi
3:51 AM37 °FLight rain. Fog.2 mph100%29.45 "Hg1 mi
3:00 AM37 °FLight rain. Fog.3 mph93%29.43 "Hg1 mi
2:00 AM37 °FLight rain. Fog.3 mph100%29.44 "Hg2 mi
1:00 AM37 °FLight rain. Fog.3 mph100%29.45 "Hg4 mi
12:00 AM37 °FLight rain. Fog.10 mph100%29.45 "Hg5 mi
11:00 PM
Apr 22
37 °FLight rain. Fog.12 mph100%29.45 "Hg5 mi
10:00 PM39 °FLight rain. Low clouds.13 mph93%29.47 "Hg8 mi
9:00 PM39 °FLight rain. Low clouds.16 mph93%29.48 "Hg8 mi
8:00 PM39 °FLight rain. Fog.13 mph93%29.48 "Hg6 mi
7:00 PM39 °FLight rain. Fog.13 mph93%29.49 "Hg4 mi
6:00 PM39 °FLight rain. Fog.12 mph93%29.51 "Hg4 mi
5:00 PM39 °FLight rain. Fog.12 mph93%29.52 "Hg3 mi
4:00 PM39 °FLight rain. Fog.12 mph93%29.54 "Hg4 mi
3:00 PM39 °FLight rain. Fog.16 mph93%29.55 "Hg4 mi
Weather by CustomWeather, © 2014

See weather overview